[[{"header":{"parameterUnit":"m.s-1","parameterCategory":2,"la1":30.2991,"la2":30.254,"lo1":-89.0895,"lo2":-89.0444,"dy":0.0017,"dx":0.0017,"nx":28,"ny":28,"refTime":"2024-08-05T09:00:00:Z","depth":"0","parameterNumber":2,"parameterNumberName":"U-component_of_CURRENTS"},"data":[0,0,0,0,0,0,0,0,0,0,0,0,0,0,0,0,0,0,0,0,0,0,0,0,0,0,0,0,0,0,0,0,0,0,0,0,0,0,0,0,0,0,0,0,0,0,0,0,0,0,0,0,0,0,0,0,0,0,-0.2447,-0.2448,0,-0.2521,-0.2521,-0.2522,-0.2493,-0.2492,-0.249,-0.2489,-0.2646,-0.2651,-0.2657,0,0,0,0,0,0,0,0,0,0,0,0,0,-0.2337,-0.2338,-0.2447,-0.2448,-0.245,-0.252,-0.2521,-0.2522,-0.2493,-0.2492,-0.249,-0.2488,-0.2644,-0.2651,-0.2657,0,0,0,0,0,0,0,0,0,0,0,0,0,-0.2391,-0.2339,-0.2447,-0.2447,-0.2447,-0.252,-0.2521,-0.2522,-0.2494,-0.2491,-0.2489,-0.2487,-0.2642,-0.265,-0.2658,-0.275,0,0,-0.2683,-0.2687,0,0,0,0,0,0,0,0,-0.2388,-0.2395,-0.2445,-0.2447,-0.2448,-0.2499,-0.254,-0.2604,-0.2494,-0.2472,-0.2489,-0.2486,-0.2609,-0.2619,-0.2631,-0.2757,-0.2764,-0.2684,-0.2689,-0.2692,-0.2695,0,0,0,0,0,0,0,-0.2384,-0.2392,-0.2472,-0.2447,-0.2449,-0.2462,-0.2466,-0.2552,-0.255,-0.2474,-0.2473,-0.2488,-0.2609,-0.2623,-0.2635,-0.2767,-0.2684,-0.2691,-0.2696,-0.2699,-0.2943,-0.2945,0,0,0,0,0,0,-0.2383,-0.2388,-0.247,-0.2475,-0.2416,-0.2465,-0.247,-0.2482,-0.2547,-0.2555,-0.2489,-0.2486,-0.261,-0.2626,-0.2641,-0.2711,-0.2692,-0.27,-0.2705,-0.2942,-0.2944,-0.2945,0,0,0,0,0,0,-0.238,-0.2389,-0.2467,-0.2436,-0.2447,-0.2469,-0.2482,-0.2484,-0.2492,-0.2558,-0.2567,-0.2495,-0.2609,-0.2629,-0.2712,-0.2718,-0.2704,-0.2711,-0.294,-0.2942,-0.2944,-0.2879,0,0,0,0,0,0,-0.2376,-0.2387,-0.2395,-0.2436,-0.2449,-0.2513,-0.2485,-0.2487,-0.2507,-0.2503,-0.2568,-0.2579,-0.2609,-0.27,-0.272,-0.2729,-0.2718,-0.2938,-0.2941,-0.2944,-0.288,-0.2879,-0.2879,0,0,0,0,0,-0.2372,-0.2398,-0.2395,-0.2405,-0.2459,-0.2514,-0.2522,-0.2528,-0.2509,-0.2525,-0.2561,-0.2577,-0.2732,-0.2708,-0.2732,-0.2743,-0.2936,-0.294,-0.2943,-0.288,-0.2879,-0.2879,0,0,0,0,0,0,-0.2353,-0.24,-0.2396,-0.2433,-0.2469,-0.251,-0.2532,-0.2534,-0.2574,-0.2568,-0.2612,-0.2629,-0.2701,-0.2746,-0.2719,-0.2825,-0.2833,-0.2842,-0.2777,-0.2777,-0.2777,-0.2725,-0.2724,0,0,0,0,0,-0.2355,-0.2383,-0.2426,-0.2454,-0.2474,-0.2501,-0.2523,-0.2529,-0.2571,-0.2583,-0.2624,-0.2678,-0.274,-0.2773,-0.284,-0.2913,-0.2908,-0.2934,-0.2934,-0.2933,-0.291,-0.2888,-0.2882,-0.2957,-0.2957,-0.2957,0,0,-0.2357,-0.2385,-0.2401,-0.2452,-0.2477,-0.251,-0.2508,-0.2546,-0.2561,-0.2603,-0.264,-0.269,-0.2763,-0.2826,-0.2862,-0.2859,-0.2919,-0.2937,-0.2935,-0.2913,-0.2891,-0.2883,-0.2875,-0.2959,-0.2959,-0.2958,0,0,-0.2375,-0.2398,-0.2425,-0.2458,-0.2503,-0.2523,-0.2533,-0.2576,-0.2581,-0.2642,-0.266,-0.2698,-0.2816,-0.2832,-0.2866,-0.2914,-0.2923,-0.2954,-0.2904,-0.2884,-0.2876,-0.2869,-0.2876,-0.287,-0.2946,-0.2946,-0.2945,0,-0.2375,-0.2402,-0.2442,-0.2475,-0.2496,-0.2525,-0.2549,-0.2576,-0.2633,-0.2639,-0.265,-0.2751,-0.2806,-0.2848,-0.2851,-0.2906,-0.2908,-0.2892,-0.2876,-0.2869,-0.2862,-0.2872,-0.2865,-0.2943,-0.2943,-0.2943,-0.2944,0,-0.2403,-0.2428,-0.2451,-0.249,-0.2524,-0.2554,-0.2594,-0.2615,-0.2627,-0.2644,-0.2688,-0.2742,-0.2788,-0.2817,-0.2851,-0.2842,-0.2865,-0.2877,-0.2858,-0.2849,-0.2863,-0.2857,-0.2939,-0.294,-0.2941,-0.2941,0,0,-0.2381,-0.2455,-0.2454,-0.2471,-0.2527,-0.2556,-0.2587,-0.2616,-0.2626,-0.266,-0.2667,-0.273,-0.2731,-0.2768,-0.2802,-0.2776,-0.2739,-0.2799,-0.2799,-0.2774,-0.2711,-0.2662,-0.2652,-0.274,-0.2739,-0.2737,-0.2745,0,-0.2378,-0.2423,-0.2462,-0.2497,-0.2522,-0.256,-0.2592,-0.2622,-0.2648,-0.2671,-0.2682,-0.2725,-0.2724,-0.2748,-0.2714,-0.2756,-0.2719,-0.2737,-0.2752,-0.2753,-0.2681,-0.264,-0.2482,-0.2468,-0.274,-0.2739,-0.2738,0,-0.2375,-0.2403,-0.2432,-0.2492,-0.2507,-0.2531,-0.2563,-0.2596,-0.2634,-0.2663,-0.2664,-0.2696,-0.2689,-0.2686,-0.2668,-0.2682,-0.2675,-0.2681,-0.2682,-0.2644,-0.2691,-0.2521,-0.2447,-0.2405,-0.2729,-0.273,-0.2731,0,-0.2312,-0.2379,-0.2391,-0.2412,-0.2488,-0.2497,-0.2526,-0.2573,-0.2621,-0.264,-0.2688,-0.2667,-0.27,-0.2653,-0.2675,-0.2667,-0.2657,-0.2657,-0.2596,-0.2596,-0.2464,-0.2453,-0.2312,-0.2597,-0.2597,-0.2597,-0.2597,0,-0.228,-0.2289,-0.2362,-0.2366,-0.2407,-0.2453,-0.2498,-0.2531,-0.2596,-0.2658,-0.2666,-0.2718,-0.2689,-0.2701,-0.267,-0.2624,-0.265,-0.2562,-0.2573,-0.2445,-0.2432,-0.2395,-0.2427,-0.2597,-0.2597,-0.2597,-0.2597,0,-0.2197,-0.2248,-0.2277,-0.2344,-0.2382,-0.2394,-0.2516,-0.2565,-0.261,-0.269,-0.2705,-0.2768,-0.2765,-0.2744,-0.2711,-0.2643,-0.2535,-0.2572,-0.2438,-0.243,-0.2285,-0.2321,-0.2232,-0.2174,-0.2466,-0.2465,-0.2463,0,-0.2154,-0.2158,-0.2252,-0.2312,-0.2342,-0.2403,-0.2485,-0.2562,-0.2624,-0.2729,-0.2771,-0.2803,-0.2809,-0.2747,-0.2608,-0.2504,-0.2511,-0.2328,-0.2251,-0.2222,-0.2272,-0.231,-0.2271,-0.2076,-0.2072,-0.2068,-0.2066,0,-0.2076,-0.211,-0.216,-0.227,-0.2359,-0.2452,-0.2543,-0.2601,-0.2694,-0.275,-0.279,-0.2787,-0.2713,-0.2517,-0.2404,-0.2329,-0.2235,-0.2251,-0.2231,-0.1943,-0.1962,-0.1931,-0.2173,-0.2034,-0.2037,-0.2039,-0.2041,-0.2042,-0.2034,-0.2063,-0.2153,-0.2243,-0.2361,-0.2445,-0.244,-0.2555,-0.2615,-0.2577,-0.2682,-0.2557,-0.239,-0.2171,-0.2114,-0.1914,-0.2016,-0.181,-0.1859,-0.1903,-0.181,-0.1996,-0.1866,-0.1868,-0.187,-0.1872,-0.1873,0,-0.1977,-0.2039,-0.2135,-0.2231,-0.228,-0.2359,-0.2451,-0.2372,-0.2357,-0.2349,-0.2282,-0.2085,-0.191,-0.1806,-0.1617,-0.1516,-0.1482,-0.1508,-0.1493,-0.1473,-0.1613,-0.1553,-0.1335,-0.1335,-0.1336,-0.1336,-0.1336,-0.1336,-0.1965,-0.202,-0.2063,-0.2109,-0.2156,-0.2103,-0.2087,-0.2006,-0.1925,-0.1729,-0.1597,-0.1499,-0.1497,-0.1543,-0.1406,-0.1331,-0.131,-0.1268,-0.1355,-0.1425,-0.1457,-0.1487,-0.1432,-0.1193,-0.1193,-0.1106,-0.1106,-0.1105]},{"header":{"parameterUnit":"m.s-1","parameterCategory":2,"la1":30.2991,"la2":30.254,"lo1":-89.0895,"lo2":-89.0444,"dy":0.0017,"dx":0.0017,"nx":28,"ny":28,"refTime":"2024-08-05T09:00:00:Z","depth":"0","parameterNumber":3,"parameterNumberName":"V-component_of_CURRENTS"},"data":[0,0,0,0,0,0,0,0,0,0,0,0,0,0,0,0,0,0,0,0,0,0,0,0,0,0,0,0,0,0,0,0,0,0,0,0,0,0,0,0,0,0,0,0,0,0,0,0,0,0,0,0,0,0,0,0,0,0,-0.0437,-0.0436,0,-0.0369,-0.0368,-0.0367,-0.0306,-0.0305,-0.0305,-0.0304,-0.0118,-0.0114,-0.011,0,0,0,0,0,0,0,0,0,0,0,0,0,-0.0481,-0.0481,-0.0437,-0.0436,-0.0435,-0.0369,-0.0368,-0.0367,-0.0306,-0.0305,-0.0305,-0.0304,-0.012,-0.0114,-0.0109,0,0,0,0,0,0,0,0,0,0,0,0,0,-0.0443,-0.0481,-0.0437,-0.0397,-0.0393,-0.0369,-0.0368,-0.0367,-0.0306,-0.0305,-0.0304,-0.0303,-0.0121,-0.0115,-0.0109,-0.0091,0,0,-0.0089,-0.0086,0,0,0,0,0,0,0,0,-0.0445,-0.0441,-0.0404,-0.04,-0.0395,-0.0345,-0.0315,-0.0269,-0.0307,-0.0339,-0.0304,-0.0303,-0.0184,-0.0172,-0.0164,-0.0082,-0.0074,-0.0088,-0.0085,-0.0082,-0.008,0,0,0,0,0,0,0,-0.0448,-0.0444,-0.041,-0.0403,-0.0397,-0.0371,-0.0364,-0.0307,-0.0266,-0.0336,-0.0332,-0.0324,-0.018,-0.017,-0.0158,-0.0071,-0.0089,-0.0083,-0.0079,-0.0077,0.0092,0.0093,0,0,0,0,0,0,-0.0459,-0.0446,-0.0412,-0.0408,-0.0418,-0.0371,-0.0364,-0.0362,-0.0269,-0.0255,-0.0325,-0.0322,-0.0182,-0.0166,-0.0151,-0.0112,-0.0082,-0.0076,-0.0072,0.0091,0.0092,0.0093,0,0,0,0,0,0,-0.046,-0.0457,-0.0415,-0.0425,-0.0418,-0.0372,-0.037,-0.0361,-0.0348,-0.0262,-0.0246,-0.0321,-0.018,-0.016,-0.0111,-0.0104,-0.0073,-0.0067,0.0091,0.0092,0.0093,-0.0039,0,0,0,0,0,0,-0.0462,-0.0458,-0.0462,-0.0426,-0.0418,-0.0408,-0.0371,-0.0361,-0.0345,-0.034,-0.0253,-0.0235,-0.0178,-0.0121,-0.0104,-0.0095,-0.0062,0.009,0.0091,0.0092,-0.0036,-0.0043,-0.0049,0,0,0,0,0,-0.0464,-0.0475,-0.0462,-0.0458,-0.0424,-0.0408,-0.0402,-0.0365,-0.0347,-0.0348,-0.0294,-0.0238,-0.01,-0.0117,-0.0097,-0.0085,0.0089,0.0091,0.0092,-0.0033,-0.0042,-0.0049,0,0,0,0,0,0,-0.049,-0.0469,-0.0454,-0.0456,-0.0437,-0.0398,-0.0395,-0.0373,-0.0334,-0.0326,-0.0246,-0.0224,-0.0174,-0.011,-0.013,-0.0028,0.0011,0.0017,-0.009,-0.0098,-0.0104,-0.012,-0.0057,0,0,0,0,0,-0.0501,-0.0506,-0.0477,-0.0479,-0.0472,-0.0436,-0.0425,-0.0405,-0.0366,-0.0349,-0.029,-0.0216,-0.0153,-0.0114,-0.0051,-0.0006,0.0027,0.0024,0.0017,0.0011,0.0015,0.0029,0.0022,0.0098,0.0098,0.0098,0,0,-0.0511,-0.0499,-0.0501,-0.0485,-0.0466,-0.0466,-0.0427,-0.0419,-0.0413,-0.0332,-0.0304,-0.0244,-0.0148,-0.01,-0.0068,-0.0046,0.0007,0.0012,0.0006,0.0014,0.0029,0.0021,0.0014,0.0099,0.0098,0.0098,0,0,-0.0539,-0.0525,-0.0542,-0.0532,-0.0514,-0.0492,-0.0494,-0.0462,-0.0441,-0.0415,-0.0349,-0.0296,-0.0201,-0.0138,-0.009,-0.0091,-0.0036,-0.0056,-0.0098,-0.0086,-0.0094,-0.0099,-0.008,-0.0083,-0.0053,-0.0054,-0.0054,0,-0.0552,-0.057,-0.0543,-0.0556,-0.0553,-0.0508,-0.0525,-0.0498,-0.0454,-0.0439,-0.0416,-0.0296,-0.0217,-0.0155,-0.0147,-0.0108,-0.0094,-0.0087,-0.0101,-0.0106,-0.011,-0.0088,-0.009,-0.006,-0.0059,-0.0059,-0.0058,0,-0.0594,-0.0607,-0.0616,-0.0618,-0.0609,-0.0618,-0.0581,-0.0567,-0.0537,-0.0506,-0.0456,-0.0371,-0.0297,-0.0257,-0.0198,-0.0171,-0.015,-0.0126,-0.0097,-0.0127,-0.01,-0.01,-0.0069,-0.0067,-0.0065,-0.0063,0,0,-0.0629,-0.0646,-0.0651,-0.0669,-0.0647,-0.0651,-0.0635,-0.0614,-0.0619,-0.0559,-0.0562,-0.0439,-0.0401,-0.0343,-0.0269,-0.0241,-0.0252,-0.0197,-0.0194,-0.0206,-0.0231,-0.0122,-0.0111,-0.0248,-0.0248,-0.0248,-0.0207,0,-0.0673,-0.0727,-0.0711,-0.0751,-0.0775,-0.0731,-0.0728,-0.0699,-0.0666,-0.0658,-0.0565,-0.0537,-0.0431,-0.0417,-0.0368,-0.0289,-0.0254,-0.0265,-0.0172,-0.0169,-0.0094,-0.0108,-0.0045,0.0006,-0.0206,-0.0206,-0.0206,0,-0.0722,-0.0755,-0.0811,-0.0838,-0.0843,-0.0853,-0.085,-0.0844,-0.0801,-0.078,-0.0726,-0.0665,-0.0591,-0.0523,-0.0395,-0.0415,-0.0322,-0.0259,-0.0256,-0.0104,-0.0059,0.0009,0.0015,0.0148,-0.0205,-0.0205,-0.0205,0,-0.0779,-0.0823,-0.0876,-0.0884,-0.0901,-0.0912,-0.0914,-0.0883,-0.0913,-0.087,-0.0902,-0.0785,-0.0764,-0.0638,-0.0453,-0.045,-0.0329,-0.0312,-0.0123,-0.0115,-0.0011,0.0008,0.0116,-0.0228,-0.0228,-0.0228,-0.0229,0,-0.0838,-0.088,-0.0914,-0.0945,-0.1025,-0.0988,-0.1064,-0.1039,-0.105,-0.109,-0.098,-0.0981,-0.0799,-0.069,-0.0516,-0.0302,-0.037,-0.0125,-0.0094,-0.0052,-0.0038,0.0127,0.018,-0.0227,-0.0227,-0.0227,-0.0228,0,-0.0895,-0.0913,-0.099,-0.1033,-0.1061,-0.1118,-0.1203,-0.1261,-0.1232,-0.1288,-0.1291,-0.1169,-0.0981,-0.077,-0.0557,-0.0389,-0.009,-0.0097,-0.0044,-0.0005,0.0298,0.0341,0.0503,0.0587,0.0088,0.0091,0.0094,0,-0.0927,-0.097,-0.108,-0.1166,-0.1197,-0.1287,-0.1367,-0.1366,-0.1415,-0.1377,-0.1408,-0.1253,-0.1062,-0.0701,-0.0383,-0.006,0.0045,0.015,0.0193,0.0335,0.0404,0.0424,0.0483,0.0264,0.0267,0.027,0.0273,0,-0.0998,-0.104,-0.1131,-0.1297,-0.1407,-0.1516,-0.1597,-0.1653,-0.162,-0.1604,-0.1476,-0.1309,-0.0924,-0.0491,-0.0088,0.0096,0.0263,0.0223,0.0344,0.0542,0.0596,0.0684,0.0214,0.03,0.0297,0.0295,0.0294,0.0293,-0.1065,-0.117,-0.1296,-0.1447,-0.1579,-0.1664,-0.1679,-0.1693,-0.1684,-0.1489,-0.1429,-0.1031,-0.0577,0.0044,0.0229,0.0598,0.0533,0.0702,0.0736,0.0738,0.0852,0.0461,0.0606,0.0605,0.0604,0.0603,0.0603,0,-0.1134,-0.1264,-0.1433,-0.1583,-0.1683,-0.172,-0.1776,-0.1677,-0.1531,-0.1304,-0.1049,-0.0444,0.005,0.0451,0.0918,0.1093,0.1107,0.1151,0.1171,0.1202,0.0836,0.0879,0.1123,0.1123,0.1122,0.1122,0.1122,0.1122,-0.119,-0.1358,-0.1449,-0.1613,-0.169,-0.1701,-0.1669,-0.1454,-0.1224,-0.0712,-0.0275,0.0018,0.0453,0.1077,0.1461,0.1481,0.1601,0.1595,0.1648,0.1378,0.1337,0.1298,0.1351,0.1689,0.169,0.2004,0.2007,0.2009]}],[{"header":{"parameterUnit":"m.s-1","parameterCategory":2,"la1":30.2991,"la2":30.254,"lo1":-89.0895,"lo2":-89.0444,"dy":0.0017,"dx":0.0017,"nx":28,"ny":28,"refTime":"2024-08-05T09:00:00:Z","depth":"2","parameterNumber":2,"parameterNumberName":"U-component_of_CURRENTS"},"data":[0,0,0,0,0,0,0,0,0,0,0,0,0,0,0,0,0,0,0,0,0,0,0,0,0,0,0,0,0,0,0,0,0,0,0,0,0,0,0,0,0,0,0,0,0,0,0,0,0,0,0,0,0,0,0,0,0,0,-0.2215,-0.2216,0,-0.2287,-0.2287,-0.2288,-0.2278,-0.2277,-0.2276,-0.2275,-0.2305,-0.2307,-0.2308,0,0,0,0,0,0,0,0,0,0,0,0,0,-0.212,-0.2121,-0.2215,-0.2216,-0.2217,-0.2287,-0.2287,-0.2288,-0.2278,-0.2277,-0.2276,-0.2275,-0.2304,-0.2306,-0.2308,0,0,0,0,0,0,0,0,0,0,0,0,0,-0.2171,-0.2121,-0.2215,-0.2222,-0.2224,-0.2286,-0.2287,-0.2288,-0.2278,-0.2277,-0.2275,-0.2274,-0.2304,-0.2306,-0.2309,-0.2355,0,0,-0.2317,-0.2318,0,0,0,0,0,0,0,0,-0.2168,-0.2174,-0.222,-0.2222,-0.2224,-0.2274,-0.2265,-0.2309,-0.2279,-0.2255,-0.2275,-0.2273,-0.2293,-0.2297,-0.2311,-0.2356,-0.2357,-0.2317,-0.2318,-0.232,-0.232,0,0,0,0,0,0,0,-0.2164,-0.2171,-0.2241,-0.2221,-0.2224,-0.2239,-0.2244,-0.2274,-0.2279,-0.2257,-0.2257,-0.2269,-0.2293,-0.2308,-0.2311,-0.2358,-0.2317,-0.2319,-0.2321,-0.2322,-0.2446,-0.2447,0,0,0,0,0,0,-0.2159,-0.2168,-0.2239,-0.2244,-0.2194,-0.2242,-0.2248,-0.2257,-0.228,-0.2283,-0.227,-0.2269,-0.2305,-0.2308,-0.2312,-0.2341,-0.2319,-0.2322,-0.2323,-0.2444,-0.2446,-0.2448,0,0,0,0,0,0,-0.2157,-0.2165,-0.2236,-0.2209,-0.2219,-0.2245,-0.2257,-0.226,-0.2275,-0.2291,-0.2292,-0.2282,-0.2304,-0.2309,-0.2347,-0.2343,-0.2323,-0.2325,-0.2442,-0.2445,-0.2447,-0.2416,0,0,0,0,0,0,-0.2154,-0.2164,-0.2171,-0.2209,-0.2221,-0.2278,-0.2258,-0.2262,-0.2285,-0.2283,-0.2302,-0.2303,-0.2303,-0.2343,-0.2349,-0.2346,-0.2327,-0.244,-0.2443,-0.2446,-0.2415,-0.2417,-0.2419,0,0,0,0,0,-0.215,-0.2172,-0.2171,-0.218,-0.223,-0.228,-0.2288,-0.2299,-0.2287,-0.2304,-0.2316,-0.2302,-0.2368,-0.2347,-0.2354,-0.2351,-0.2438,-0.2442,-0.2446,-0.2414,-0.2417,-0.2419,0,0,0,0,0,0,-0.2135,-0.2175,-0.2174,-0.2206,-0.224,-0.2279,-0.2299,-0.2306,-0.2331,-0.2324,-0.2329,-0.2333,-0.2359,-0.2378,-0.2355,-0.2402,-0.24,-0.2405,-0.2373,-0.2376,-0.2378,-0.235,-0.233,0,0,0,0,0,-0.2136,-0.216,-0.2199,-0.2223,-0.2242,-0.227,-0.2291,-0.23,-0.2328,-0.2336,-0.235,-0.2369,-0.2385,-0.2397,-0.242,-0.2455,-0.2444,-0.2461,-0.2463,-0.2465,-0.2451,-0.2426,-0.2422,-0.2461,-0.2461,-0.2461,0,0,-0.2139,-0.2162,-0.2176,-0.2222,-0.2247,-0.2277,-0.2279,-0.2315,-0.233,-0.2338,-0.2364,-0.2378,-0.2399,-0.2425,-0.2439,-0.2437,-0.2456,-0.247,-0.247,-0.2456,-0.2429,-0.2425,-0.2421,-0.2464,-0.2463,-0.2463,0,0,-0.2154,-0.2175,-0.2198,-0.2229,-0.227,-0.2289,-0.23,-0.2342,-0.2349,-0.239,-0.2384,-0.2394,-0.2448,-0.2439,-0.2446,-0.2483,-0.2467,-0.2505,-0.249,-0.2465,-0.246,-0.2455,-0.2456,-0.2452,-0.2506,-0.2506,-0.2506,0,-0.2155,-0.218,-0.2214,-0.2244,-0.2263,-0.2292,-0.2315,-0.234,-0.2385,-0.2386,-0.2398,-0.2432,-0.2444,-0.2443,-0.2454,-0.2479,-0.2478,-0.2467,-0.2462,-0.2457,-0.2452,-0.2454,-0.245,-0.2505,-0.2505,-0.2505,-0.2505,0,-0.218,-0.2204,-0.2224,-0.226,-0.229,-0.2319,-0.2353,-0.2376,-0.2389,-0.2401,-0.2413,-0.2431,-0.2442,-0.2453,-0.2465,-0.2446,-0.2461,-0.2459,-0.2439,-0.2445,-0.2449,-0.2445,-0.2504,-0.2504,-0.2504,-0.2505,0,0,-0.2161,-0.2227,-0.2228,-0.2243,-0.2295,-0.2319,-0.2348,-0.2371,-0.2375,-0.2407,-0.2405,-0.2422,-0.2418,-0.2426,-0.2433,-0.2415,-0.239,-0.2428,-0.2427,-0.2401,-0.2356,-0.2283,-0.2272,-0.2383,-0.2382,-0.2381,-0.2376,0,-0.216,-0.2202,-0.2235,-0.2268,-0.2291,-0.2325,-0.2348,-0.2372,-0.2392,-0.2407,-0.24,-0.2412,-0.2413,-0.2417,-0.2394,-0.2399,-0.2375,-0.2392,-0.2378,-0.2378,-0.2287,-0.2262,-0.2098,-0.2071,-0.2372,-0.2371,-0.2371,0,-0.2158,-0.2184,-0.2212,-0.2259,-0.2271,-0.2293,-0.2315,-0.2343,-0.2367,-0.2384,-0.2381,-0.2392,-0.2378,-0.2379,-0.235,-0.2365,-0.2352,-0.2347,-0.2347,-0.2279,-0.2295,-0.2113,-0.2052,-0.2363,-0.2364,-0.2364,-0.2365,0,-0.2102,-0.2162,-0.2175,-0.2194,-0.2255,-0.2263,-0.229,-0.2323,-0.2338,-0.2363,-0.2382,-0.2366,-0.2377,-0.2342,-0.2349,-0.2346,-0.2323,-0.2316,-0.2234,-0.2231,-0.2085,-0.2069,-0.2267,-0.2267,-0.2268,-0.2268,-0.2268,0,-0.2075,-0.2084,-0.215,-0.2156,-0.2168,-0.2226,-0.2234,-0.2268,-0.2305,-0.233,-0.2358,-0.2378,-0.2368,-0.2368,-0.2344,-0.2281,-0.2315,-0.2212,-0.2207,-0.2075,-0.206,-0.2309,-0.2314,-0.2267,-0.2267,-0.2267,-0.2267,0,-0.2003,-0.205,-0.2069,-0.2127,-0.2144,-0.2148,-0.2202,-0.2225,-0.2268,-0.2306,-0.2318,-0.2381,-0.2381,-0.2369,-0.234,-0.2279,-0.2227,-0.2197,-0.2058,-0.2034,-0.2153,-0.2157,-0.2074,-0.2071,-0.2068,-0.2066,-0.2065,0,-0.1967,-0.1971,-0.2028,-0.2049,-0.2072,-0.2096,-0.2129,-0.2188,-0.2219,-0.2312,-0.2333,-0.2365,-0.2346,-0.2281,-0.2199,-0.2109,-0.2186,-0.1908,-0.1843,-0.212,-0.2125,-0.2133,-0.2141,-0.166,-0.1655,-0.1651,-0.1648,0,-0.1894,-0.1916,-0.1934,-0.1975,-0.2012,-0.2039,-0.2089,-0.2108,-0.22,-0.2223,-0.2278,-0.2264,-0.2225,-0.2046,-0.194,-0.1874,-0.19,-0.182,-0.2128,-0.1732,-0.1728,-0.1734,-0.1755,-0.1612,-0.1615,-0.1618,-0.162,-0.1622,-0.1835,-0.1829,-0.1868,-0.1893,-0.1943,-0.1975,-0.1951,-0.2009,-0.2019,-0.2009,-0.2124,-0.2014,-0.1987,-0.17,-0.1619,-0.1552,-0.1672,-0.157,-0.1583,-0.16,-0.155,-0.1541,-0.1383,-0.1385,-0.1387,-0.1389,-0.139,0,-0.177,-0.1776,-0.1796,-0.1815,-0.1821,-0.1876,-0.1917,-0.1848,-0.1808,-0.1801,-0.176,-0.1545,-0.1408,-0.1391,-0.1219,-0.1173,-0.1171,-0.1125,-0.1121,-0.1157,-0.1189,-0.1119,-0.0837,-0.0835,-0.0833,-0.0832,0,0,-0.1737,-0.1724,-0.1725,-0.1686,-0.1697,-0.1625,-0.1617,-0.152,-0.1453,-0.1308,-0.1213,-0.1277,-0.1307,-0.1058,-0.1011,-0.0888,-0.1009,-0.0842,-0.1284,-0.1312,-0.1342,-0.1442,-0.1374,0,0,0,0,0]},{"header":{"parameterUnit":"m.s-1","parameterCategory":2,"la1":30.2991,"la2":30.254,"lo1":-89.0895,"lo2":-89.0444,"dy":0.0017,"dx":0.0017,"nx":28,"ny":28,"refTime":"2024-08-05T09:00:00:Z","depth":"2","parameterNumber":3,"parameterNumberName":"V-component_of_CURRENTS"},"data":[0,0,0,0,0,0,0,0,0,0,0,0,0,0,0,0,0,0,0,0,0,0,0,0,0,0,0,0,0,0,0,0,0,0,0,0,0,0,0,0,0,0,0,0,0,0,0,0,0,0,0,0,0,0,0,0,0,0,-0.0284,-0.0284,0,-0.0225,-0.0225,-0.0224,-0.0169,-0.0168,-0.0168,-0.0167,-0.002,-0.0017,-0.0014,0,0,0,0,0,0,0,0,0,0,0,0,0,-0.0308,-0.0309,-0.0284,-0.0284,-0.0283,-0.0225,-0.0225,-0.0224,-0.0169,-0.0168,-0.0167,-0.0166,-0.0021,-0.0017,-0.0014,0,0,0,0,0,0,0,0,0,0,0,0,0,-0.028,-0.0309,-0.0285,-0.0248,-0.0244,-0.0226,-0.0225,-0.0224,-0.0169,-0.0168,-0.0167,-0.0166,-0.0022,-0.0018,-0.0013,-0.0007,0,0,0.0001,0.0004,0,0,0,0,0,0,0,0,-0.0281,-0.0279,-0.0254,-0.025,-0.0246,-0.0203,-0.0179,-0.0147,-0.017,-0.0199,-0.0167,-0.0165,-0.0073,-0.0064,-0.0058,0.0,0.0006,0.0002,0.0005,0.0007,0.0008,0,0,0,0,0,0,0,-0.0283,-0.0281,-0.0262,-0.0253,-0.0248,-0.022,-0.0215,-0.0173,-0.0142,-0.0196,-0.0192,-0.0184,-0.007,-0.0063,-0.0054,0.0008,0.0002,0.0006,0.0009,0.0011,0.0117,0.0117,0,0,0,0,0,0,-0.0292,-0.0283,-0.0264,-0.026,-0.026,-0.0221,-0.0215,-0.0218,-0.0145,-0.0133,-0.0185,-0.0182,-0.0072,-0.006,-0.0049,-0.002,0.0007,0.0011,0.0014,0.0117,0.0117,0.0117,0,0,0,0,0,0,-0.0293,-0.0292,-0.0266,-0.0269,-0.0263,-0.0222,-0.0226,-0.0218,-0.0208,-0.0137,-0.0123,-0.0183,-0.0071,-0.0055,-0.0019,-0.0014,0.0013,0.0018,0.0117,0.0117,0.0117,0.0027,0,0,0,0,0,0,-0.0295,-0.0293,-0.0298,-0.027,-0.0263,-0.0263,-0.0226,-0.0217,-0.0205,-0.02,-0.013,-0.0116,-0.0069,-0.0027,-0.0014,-0.0007,0.0022,0.0117,0.0117,0.0117,0.003,0.0024,0.0019,0,0,0,0,0,-0.0296,-0.0311,-0.0299,-0.0296,-0.0273,-0.0263,-0.0258,-0.0224,-0.0206,-0.021,-0.0165,-0.0118,-0.0017,-0.0024,-0.0009,-0.0,0.0117,0.0117,0.0117,0.0033,0.0026,0.0019,0,0,0,0,0,0,-0.0323,-0.0306,-0.0292,-0.0301,-0.0285,-0.0254,-0.0252,-0.0232,-0.0202,-0.0195,-0.0127,-0.0111,-0.0077,-0.0028,-0.0037,0.0032,0.0062,0.0064,-0.0007,-0.0014,-0.0019,-0.0022,0.0025,0,0,0,0,0,-0.0333,-0.0341,-0.0317,-0.0324,-0.0319,-0.0288,-0.0279,-0.0262,-0.0231,-0.0217,-0.0169,-0.0113,-0.0068,-0.0034,0.0007,0.0042,0.0089,0.0062,0.0056,0.005,0.0059,0.0119,0.012,0.0117,0.0117,0.0117,0,0,-0.0344,-0.0336,-0.0339,-0.033,-0.0314,-0.0317,-0.028,-0.0277,-0.0273,-0.0205,-0.0184,-0.0139,-0.0067,-0.0033,-0.001,0.0012,0.0073,0.005,0.0045,0.0057,0.0119,0.012,0.012,0.0116,0.0116,0.0116,0,0,-0.0376,-0.0366,-0.0384,-0.0377,-0.0362,-0.0343,-0.0346,-0.0321,-0.0302,-0.0285,-0.023,-0.0185,-0.0121,-0.0064,-0.0027,-0.0036,0.0031,-0.0019,-0.0037,0.002,0.0021,0.0023,0.0063,0.0069,-0.001,-0.001,-0.001,0,-0.0389,-0.0409,-0.0387,-0.0401,-0.0395,-0.0359,-0.0373,-0.0354,-0.032,-0.0299,-0.0288,-0.0187,-0.0133,-0.0068,-0.0071,-0.0047,-0.0011,-0.0022,0.0012,0.0015,0.0017,0.0059,0.0067,-0.0014,-0.0014,-0.0013,-0.0013,0,-0.0433,-0.0446,-0.0456,-0.0459,-0.0451,-0.0461,-0.043,-0.0418,-0.0392,-0.0361,-0.0309,-0.0243,-0.0173,-0.0151,-0.0113,-0.0058,-0.004,-0.0015,0.0024,0.0012,0.0057,0.0066,-0.0021,-0.0019,-0.0018,-0.0017,0,0,-0.0468,-0.0485,-0.0489,-0.0498,-0.0484,-0.0483,-0.0474,-0.0447,-0.0429,-0.039,-0.0355,-0.0281,-0.0237,-0.0191,-0.0132,-0.0077,-0.0037,-0.0041,-0.0036,-0.001,0.0078,0.0113,0.0128,-0.0009,-0.0008,-0.0007,0.0094,0,-0.0507,-0.0554,-0.0542,-0.057,-0.0586,-0.0547,-0.0538,-0.0505,-0.0465,-0.0424,-0.0343,-0.0293,-0.0253,-0.0219,-0.016,-0.0064,-0.0013,-0.0067,0.0096,0.0101,0.0126,0.014,0.011,0.02,0.0103,0.0105,0.0106,0,-0.0552,-0.0577,-0.0621,-0.0622,-0.0623,-0.0627,-0.0593,-0.058,-0.0508,-0.0473,-0.0404,-0.034,-0.0248,-0.022,-0.0065,-0.0103,-0.002,0.0049,0.0055,0.0132,0.0155,0.0203,0.0221,0.0123,0.0121,0.012,0.0119,0,-0.0592,-0.0625,-0.0662,-0.0666,-0.0664,-0.0663,-0.0652,-0.0596,-0.0569,-0.0499,-0.0466,-0.0358,-0.03,-0.0181,-0.0043,-0.005,0.0123,0.0136,0.0244,0.0247,0.0279,0.0282,0.0243,0.0243,0.0243,0.0243,0.0242,0,-0.0637,-0.0664,-0.0687,-0.0707,-0.0733,-0.0708,-0.0705,-0.0677,-0.0613,-0.0583,-0.0493,-0.0442,-0.0288,-0.0171,-0.0048,0.0128,0.0123,0.0251,0.0284,0.0245,0.0244,0.0227,0.0224,0.0246,0.0245,0.0245,0.0244,0,-0.0675,-0.0693,-0.0735,-0.0752,-0.0757,-0.0773,-0.075,-0.0746,-0.0679,-0.0635,-0.0612,-0.0492,-0.034,-0.0177,0.0019,0.0122,0.0287,0.0347,0.0282,0.0307,0.037,0.0361,0.0486,0.0488,0.049,0.0492,0.0493,0,-0.0697,-0.0729,-0.0776,-0.0805,-0.0817,-0.0832,-0.0847,-0.0791,-0.0765,-0.0665,-0.0641,-0.0497,-0.0369,-0.0071,0.0125,0.0358,0.0349,0.0451,0.0446,0.038,0.04,0.0387,0.0376,0.0442,0.0443,0.0444,0.0445,0,-0.0738,-0.076,-0.0796,-0.087,-0.0903,-0.092,-0.0918,-0.09,-0.083,-0.0761,-0.0651,-0.054,-0.0267,-0.0016,0.0266,0.0386,0.0415,0.0475,0.0442,0.0384,0.0348,0.0364,0.0353,0.0451,0.045,0.045,0.0449,0.0449,-0.0762,-0.0804,-0.0868,-0.0932,-0.0975,-0.1,-0.1005,-0.0957,-0.0897,-0.0759,-0.066,-0.0453,-0.0238,0.0189,0.0367,0.0514,0.0514,0.0553,0.0548,0.0542,0.0518,0.0487,0.061,0.0611,0.0611,0.0611,0.0611,0,-0.0801,-0.0862,-0.0929,-0.1,-0.1061,-0.1064,-0.1052,-0.1016,-0.0938,-0.076,-0.0596,-0.0317,-0.002,0.02,0.0453,0.061,0.0573,0.0619,0.0545,0.0538,0.0533,0.0505,0.0596,0.0596,0.0597,0.0597,0,0,-0.0823,-0.091,-0.0956,-0.1069,-0.1118,-0.1156,-0.115,-0.1049,-0.0907,-0.0707,-0.0513,-0.0265,0.0002,0.0186,0.0367,0.0491,0.0465,0.0488,0.0483,0.0367,0.0359,0.0479,0.0428,0,0,0,0,0]}],[{"header":{"parameterUnit":"m.s-1","parameterCategory":2,"la1":30.2991,"la2":30.254,"lo1":-89.0895,"lo2":-89.0444,"dy":0.0017,"dx":0.0017,"nx":28,"ny":28,"refTime":"2024-08-05T09:00:00:Z","depth":"4","parameterNumber":2,"parameterNumberName":"U-component_of_CURRENTS"},"data":[0,0,0,0,0,0,0,0,0,0,0,0,0,0,0,0,0,0,0,0,0,0,0,0,0,0,0,0,0,0,0,0,0,0,0,0,0,0,0,0,0,0,0,0,0,0,0,0,0,0,0,0,0,0,0,0,0,0,-0.1555,-0.1556,0,-0.1644,-0.1645,-0.1646,-0.1693,-0.1693,-0.1693,-0.1693,-0.1725,-0.1725,-0.1726,0,0,0,0,0,0,0,0,0,0,0,0,0,-0.1461,-0.1462,-0.1555,-0.1556,-0.1557,-0.1644,-0.1645,-0.1646,-0.1693,-0.1693,-0.1693,-0.1693,-0.1724,-0.1725,-0.1726,0,0,0,0,0,0,0,0,0,0,0,0,0,-0.152,-0.1462,-0.1555,-0.1591,-0.1595,-0.1643,-0.1645,-0.1646,-0.1693,-0.1693,-0.1693,-0.1693,-0.1724,-0.1725,-0.1726,-0.173,0,0,-0.173,-0.173,0,0,0,0,0,0,0,0,-0.1517,-0.1523,-0.1585,-0.1589,-0.1593,-0.1658,-0.1624,-0.1672,-0.1692,-0.1655,-0.1693,-0.1693,-0.1697,-0.17,-0.1717,-0.1731,-0.1733,-0.173,-0.173,-0.1731,-0.1731,0,0,0,0,0,0,0,-0.1512,-0.152,-0.159,-0.1586,-0.1591,-0.1615,-0.1623,-0.1633,-0.1673,-0.1658,-0.1662,-0.1673,-0.1699,-0.1716,-0.1718,-0.1733,-0.173,-0.1731,-0.1731,-0.1732,-0.1804,-0.1805,0,0,0,0,0,0,-0.15,-0.1516,-0.1587,-0.1592,-0.1555,-0.1617,-0.1626,-0.1637,-0.1674,-0.168,-0.1672,-0.1675,-0.1714,-0.1717,-0.1719,-0.1764,-0.1731,-0.1732,-0.1733,-0.1803,-0.1804,-0.1806,0,0,0,0,0,0,-0.1498,-0.1506,-0.1583,-0.1557,-0.1568,-0.1618,-0.163,-0.1638,-0.1683,-0.1685,-0.1691,-0.1711,-0.1714,-0.1718,-0.1765,-0.1764,-0.1732,-0.1733,-0.1801,-0.1803,-0.1805,-0.1829,0,0,0,0,0,0,-0.1495,-0.1504,-0.1524,-0.1556,-0.1569,-0.1631,-0.163,-0.164,-0.1687,-0.1692,-0.1719,-0.1721,-0.1715,-0.1763,-0.1766,-0.1765,-0.1734,-0.18,-0.1802,-0.1804,-0.1827,-0.1832,-0.1836,0,0,0,0,0,-0.1491,-0.1514,-0.1524,-0.1533,-0.1589,-0.1632,-0.1642,-0.1677,-0.1689,-0.1716,-0.1744,-0.1722,-0.1779,-0.1766,-0.1769,-0.1768,-0.1799,-0.1801,-0.1804,-0.1825,-0.1831,-0.1836,0,0,0,0,0,0,-0.1486,-0.1522,-0.1533,-0.1567,-0.1605,-0.164,-0.1674,-0.1694,-0.1739,-0.1749,-0.175,-0.1755,-0.1787,-0.1787,-0.1773,-0.1798,-0.178,-0.1783,-0.1794,-0.18,-0.1804,-0.1792,-0.1735,0,0,0,0,0,-0.1492,-0.152,-0.1554,-0.1585,-0.1606,-0.1645,-0.1673,-0.1695,-0.1731,-0.1753,-0.1776,-0.1792,-0.1797,-0.181,-0.1818,-0.1845,-0.1831,-0.1843,-0.1848,-0.1851,-0.1845,-0.1834,-0.1836,-0.1815,-0.1815,-0.1815,0,0,-0.1501,-0.1523,-0.1542,-0.1587,-0.162,-0.1653,-0.1664,-0.1713,-0.174,-0.1746,-0.1806,-0.1813,-0.1809,-0.1833,-0.1846,-0.1836,-0.1855,-0.1855,-0.1858,-0.185,-0.1837,-0.1839,-0.184,-0.1817,-0.1816,-0.1816,0,0,-0.1522,-0.1553,-0.158,-0.1612,-0.1662,-0.1682,-0.1701,-0.1754,-0.1781,-0.1836,-0.1832,-0.1849,-0.1887,-0.187,-0.1865,-0.1903,-0.1879,-0.1909,-0.1922,-0.1912,-0.1913,-0.1913,-0.1912,-0.1912,-0.1912,-0.1912,-0.1912,0,-0.1535,-0.1564,-0.1597,-0.1629,-0.1656,-0.1696,-0.1727,-0.176,-0.1824,-0.1838,-0.1861,-0.1892,-0.1893,-0.1883,-0.1899,-0.1907,-0.1909,-0.1898,-0.1915,-0.1915,-0.1915,-0.1914,-0.1914,-0.1913,-0.1913,-0.1913,-0.1913,0,-0.156,-0.1598,-0.162,-0.1666,-0.1701,-0.1739,-0.1777,-0.182,-0.1858,-0.1879,-0.1908,-0.192,-0.1929,-0.193,-0.193,-0.1924,-0.1929,-0.1919,-0.1895,-0.1918,-0.1916,-0.1916,-0.1916,-0.1915,-0.1915,-0.1914,0,0,-0.1545,-0.1623,-0.1631,-0.1657,-0.1722,-0.1748,-0.1796,-0.1833,-0.1855,-0.191,-0.1929,-0.194,-0.1946,-0.1941,-0.1934,-0.1931,-0.1938,-0.1936,-0.1935,-0.1924,-0.1932,-0.1799,-0.1785,-0.1938,-0.1938,-0.1938,-0.1935,0,-0.1555,-0.1609,-0.1646,-0.1701,-0.1731,-0.1778,-0.1814,-0.1853,-0.1891,-0.1925,-0.1925,-0.1944,-0.1948,-0.1954,-0.1952,-0.1941,-0.1937,-0.1941,-0.192,-0.192,-0.1788,-0.1779,-0.1937,-0.1934,-0.1934,-0.1934,-0.1934,0,-0.1553,-0.159,-0.1643,-0.1708,-0.1726,-0.1765,-0.1815,-0.1853,-0.1894,-0.1923,-0.194,-0.1952,-0.1951,-0.1955,-0.1945,-0.1955,-0.1947,-0.1939,-0.1939,-0.1799,-0.1783,-0.1904,-0.1932,-0.1932,-0.1932,-0.1933,-0.1933,0,-0.1502,-0.1582,-0.1621,-0.1647,-0.1728,-0.176,-0.1801,-0.1852,-0.187,-0.1919,-0.1936,-0.1948,-0.1953,-0.195,-0.1936,-0.1953,-0.1919,-0.1934,-0.1804,-0.1796,-0.1909,-0.1908,-0.1917,-0.1917,-0.1917,-0.1917,-0.1917,0,-0.1474,-0.1509,-0.1607,-0.1628,-0.1662,-0.1737,-0.1767,-0.1812,-0.1862,-0.1871,-0.1928,-0.1922,-0.1955,-0.194,-0.1935,-0.1851,-0.1914,-0.1792,-0.1773,-0.1924,-0.1924,-0.1909,-0.1908,-0.1917,-0.1917,-0.1917,-0.1917,0,-0.1404,-0.1474,-0.1522,-0.1615,-0.164,-0.1666,-0.1735,-0.1752,-0.1822,-0.1837,-0.1852,-0.1902,-0.1883,-0.1887,-0.1872,-0.1823,-0.1772,-0.1727,-0.1885,-0.1879,-0.1669,-0.167,-0.1594,-0.1589,-0.1585,-0.1581,-0.1578,0,-0.137,-0.1393,-0.149,-0.1511,-0.1557,-0.1604,-0.1629,-0.1712,-0.1731,-0.1801,-0.1797,-0.1808,-0.1822,-0.1692,-0.1719,-0.1673,-0.1654,-0.1631,-0.1649,-0.1639,-0.1631,-0.1638,-0.1645,-0.1571,-0.157,-0.1569,-0.1568,0,-0.13,-0.135,-0.1384,-0.1428,-0.1468,-0.1494,-0.1548,-0.1547,-0.1638,-0.1707,-0.1685,-0.166,-0.1628,-0.1603,-0.1557,-0.1533,-0.1648,-0.1587,-0.1597,-0.1614,-0.1611,-0.1608,-0.162,-0.1553,-0.1555,-0.1557,-0.1557,0,-0.1247,-0.1248,-0.1305,-0.1325,-0.1379,-0.1394,-0.1422,-0.1445,-0.1468,-0.1565,-0.1545,-0.1567,-0.1609,-0.1528,-0.1491,-0.1441,-0.1437,-0.1412,-0.1431,-0.1448,-0.1395,-0.1371,-0.1205,0,0,0,0,0,-0.1193,-0.1182,-0.1196,-0.122,-0.1274,-0.1297,-0.1376,-0.1414,-0.1498,-0.1444,-0.1493,-0.1456,-0.1399,-0.141,-0.1325,-0.1429,-0.1446,-0.1327,-0.1429,-0.1471,-0.1488,-0.1437,0,0,0,0,0,0,-0.1154,-0.1171,-0.1161,-0.1138,-0.1132,-0.1171,-0.122,-0.1274,-0.1253,-0.134,-0.1309,-0.1365,-0.1323,-0.141,-0.129,-0.1292,-0.1329,-0.134,-0.1337,-0.1461,-0.1477,-0.149,-0.1444,0,0,0,0,0]},{"header":{"parameterUnit":"m.s-1","parameterCategory":2,"la1":30.2991,"la2":30.254,"lo1":-89.0895,"lo2":-89.0444,"dy":0.0017,"dx":0.0017,"nx":28,"ny":28,"refTime":"2024-08-05T09:00:00:Z","depth":"4","parameterNumber":3,"parameterNumberName":"V-component_of_CURRENTS"},"data":[0,0,0,0,0,0,0,0,0,0,0,0,0,0,0,0,0,0,0,0,0,0,0,0,0,0,0,0,0,0,0,0,0,0,0,0,0,0,0,0,0,0,0,0,0,0,0,0,0,0,0,0,0,0,0,0,0,0,-0.0202,-0.0202,0,-0.0167,-0.0167,-0.0166,-0.0128,-0.0127,-0.0127,-0.0126,-0.0043,-0.0042,-0.004,0,0,0,0,0,0,0,0,0,0,0,0,0,-0.02,-0.0201,-0.0202,-0.0201,-0.0201,-0.0167,-0.0167,-0.0166,-0.0128,-0.0127,-0.0127,-0.0126,-0.0044,-0.0042,-0.004,0,0,0,0,0,0,0,0,0,0,0,0,0,-0.0188,-0.0201,-0.0202,-0.0177,-0.0175,-0.0167,-0.0167,-0.0166,-0.0128,-0.0127,-0.0126,-0.0126,-0.0044,-0.0042,-0.004,-0.0044,0,0,-0.0032,-0.0031,0,0,0,0,0,0,0,0,-0.0188,-0.0188,-0.0181,-0.0179,-0.0176,-0.015,-0.0136,-0.0123,-0.0129,-0.0147,-0.0126,-0.0125,-0.0075,-0.007,-0.0067,-0.004,-0.0036,-0.0032,-0.003,-0.0029,-0.0029,0,0,0,0,0,0,0,-0.0189,-0.0189,-0.0189,-0.0181,-0.0178,-0.0155,-0.0153,-0.0133,-0.0116,-0.0145,-0.0142,-0.0137,-0.0073,-0.007,-0.0065,-0.0035,-0.0032,-0.003,-0.0028,-0.0027,0.0003,0.0003,0,0,0,0,0,0,-0.0195,-0.019,-0.019,-0.0188,-0.0179,-0.0156,-0.0154,-0.016,-0.0117,-0.011,-0.0138,-0.0135,-0.0074,-0.0068,-0.0062,-0.0053,-0.0029,-0.0027,-0.0026,0.0004,0.0003,0.0002,0,0,0,0,0,0,-0.0195,-0.0196,-0.0192,-0.0187,-0.0184,-0.0158,-0.0165,-0.016,-0.0156,-0.0112,-0.0104,-0.0138,-0.0073,-0.0065,-0.0048,-0.005,-0.0026,-0.0024,0.0005,0.0004,0.0003,-0.0044,0,0,0,0,0,0,-0.0196,-0.0197,-0.0204,-0.0188,-0.0185,-0.0194,-0.0166,-0.016,-0.0153,-0.015,-0.011,-0.0101,-0.0072,-0.0052,-0.0046,-0.0046,-0.0022,0.0005,0.0004,0.0003,-0.0041,-0.0046,-0.005,0,0,0,0,0,-0.0196,-0.0212,-0.0205,-0.0204,-0.0196,-0.0195,-0.0192,-0.0169,-0.0155,-0.0161,-0.0132,-0.0103,-0.0055,-0.0051,-0.0043,-0.0043,0.0006,0.0005,0.0003,-0.0039,-0.0045,-0.005,0,0,0,0,0,0,-0.0216,-0.0209,-0.0201,-0.0214,-0.0207,-0.0188,-0.019,-0.0176,-0.016,-0.0156,-0.0112,-0.0102,-0.0092,-0.0065,-0.0061,-0.0039,-0.0019,-0.0019,-0.0054,-0.0059,-0.0064,-0.0052,-0.002,0,0,0,0,0,-0.0225,-0.0236,-0.0223,-0.0235,-0.0232,-0.0213,-0.0209,-0.0198,-0.0181,-0.0173,-0.0144,-0.0115,-0.0093,-0.0074,-0.0057,-0.0042,0.0005,-0.0038,-0.0042,-0.0046,-0.0032,0.004,0.0044,-0.0002,-0.0002,-0.0002,0,0,-0.0236,-0.0233,-0.0239,-0.0239,-0.0231,-0.0236,-0.0209,-0.0212,-0.0212,-0.0166,-0.0159,-0.0135,-0.0097,-0.0084,-0.0075,-0.0058,-0.0014,-0.0048,-0.0051,-0.0035,0.0039,0.0044,0.0048,-0.0003,-0.0003,-0.0003,0,0,-0.0264,-0.0263,-0.0279,-0.0277,-0.0272,-0.026,-0.0263,-0.025,-0.0238,-0.0235,-0.0199,-0.0172,-0.0148,-0.0109,-0.0088,-0.0105,-0.0048,-0.0108,-0.0107,-0.0038,-0.0033,-0.0028,0.0016,0.0026,-0.0099,-0.0099,-0.0099,0,-0.0276,-0.0295,-0.0284,-0.0297,-0.0294,-0.0273,-0.0286,-0.0277,-0.0259,-0.024,-0.0241,-0.018,-0.0155,-0.0107,-0.0117,-0.0112,-0.0071,-0.009,-0.0042,-0.0035,-0.0029,0.0016,0.0027,-0.0102,-0.0101,-0.0101,-0.0101,0,-0.0312,-0.0327,-0.0338,-0.0345,-0.0342,-0.0353,-0.0336,-0.0331,-0.0316,-0.0292,-0.0255,-0.0218,-0.0169,-0.0166,-0.0149,-0.0093,-0.008,-0.0063,-0.0024,-0.0027,0.0019,0.0032,-0.0105,-0.0104,-0.0104,-0.0103,0,0,-0.0338,-0.0359,-0.0364,-0.0368,-0.0368,-0.0367,-0.0368,-0.0347,-0.0325,-0.0307,-0.0265,-0.0235,-0.0196,-0.0169,-0.0134,-0.0077,-0.0017,-0.0055,-0.005,-0.0005,0.0124,0.0082,0.0093,0.0013,0.0015,0.0017,0.0131,0,-0.0368,-0.0405,-0.0402,-0.0424,-0.0435,-0.0412,-0.0407,-0.0383,-0.0353,-0.0309,-0.0252,-0.0209,-0.0201,-0.0172,-0.0115,-0.0039,0.0018,-0.005,0.0115,0.012,0.009,0.0107,0.0025,0.0141,0.0144,0.0146,0.0148,0,-0.0399,-0.0418,-0.0452,-0.045,-0.045,-0.0459,-0.0424,-0.0416,-0.035,-0.0321,-0.0259,-0.0208,-0.0127,-0.0121,0.0022,-0.0021,0.0047,0.0105,0.0111,0.0105,0.0103,0.015,0.0171,0.0169,0.0168,0.0166,0.0165,0,-0.0414,-0.0444,-0.0471,-0.0476,-0.0476,-0.0476,-0.0468,-0.0419,-0.0391,-0.0318,-0.0277,-0.0181,-0.0121,-0.0021,0.0072,0.0061,0.0231,0.0235,0.0266,0.0263,0.0288,0.0281,0.0349,0.0349,0.0349,0.0349,0.0348,0,-0.0436,-0.0456,-0.0485,-0.0498,-0.0506,-0.0498,-0.048,-0.0455,-0.0396,-0.0352,-0.028,-0.0219,-0.009,0.0013,0.0094,0.0209,0.0251,0.0276,0.0298,0.0259,0.0249,0.0296,0.0288,0.0353,0.0352,0.0351,0.0351,0,-0.0445,-0.047,-0.0497,-0.0515,-0.0518,-0.0523,-0.0497,-0.0476,-0.0425,-0.0362,-0.0337,-0.0221,-0.0104,0.0015,0.0183,0.0235,0.0349,0.0381,0.0318,0.0333,0.0331,0.032,0.044,0.044,0.0439,0.0439,0.0439,0,-0.045,-0.0475,-0.0511,-0.0526,-0.0539,-0.0541,-0.0537,-0.0496,-0.0467,-0.0367,-0.0334,-0.021,-0.0133,0.007,0.0186,0.0343,0.0356,0.042,0.0387,0.0336,0.0346,0.0334,0.0323,0.0439,0.0439,0.0439,0.0438,0,-0.0458,-0.0482,-0.0503,-0.0547,-0.0561,-0.0568,-0.056,-0.0533,-0.0478,-0.0418,-0.0322,-0.0213,-0.0081,0.0058,0.0177,0.0288,0.0382,0.0418,0.0419,0.0389,0.0336,0.0343,0.0333,0.0438,0.0438,0.0438,0.0438,0,-0.0458,-0.0479,-0.0526,-0.0559,-0.0591,-0.0616,-0.059,-0.0552,-0.0512,-0.0396,-0.0365,-0.0225,-0.0125,0.0031,0.0142,0.0241,0.0266,0.0301,0.0309,0.0312,0.0226,0.0137,0.021,0,0,0,0,0,-0.0462,-0.0501,-0.0535,-0.0587,-0.0628,-0.0658,-0.0623,-0.0587,-0.0515,-0.0455,-0.0409,-0.0295,-0.0118,-0.0029,0.0062,0.0123,0.0271,0.0233,0.0311,0.0433,0.0434,0.035,0,0,0,0,0,0,-0.0465,-0.0509,-0.0541,-0.0625,-0.0674,-0.0717,-0.0707,-0.0649,-0.0596,-0.0504,-0.0409,-0.0305,-0.0136,-0.0202,0.0041,0.0079,0.0138,0.0333,0.0335,0.0432,0.0433,0.0434,0.0348,0,0,0,0,0]}]]